Regional Weather Roundup
Issued by NWS

Home | Current Version | Previous Version | Graphics & Text | Print | Product List | Glossary On
Versions: 1 2 3 4 5 6 7 8 9 10 11 12 13 14 15 16 17 18 19 20 21 22 23 24 25 26 27 28 29 30 31 32 33 34 35 36 37 38 39 40 41 42 43 44 45 46 47 48 49 50
000
ASUS43 KOAX 171102
RWRNE

WEATHER ROUNDUP FOR NEBRASKA
NATIONAL WEATHER SERVICE OMAHA NE
600 AM CDT THU APR 17 2014

NOTES: SATELLITE DATA IS BEING USED TO AUGMENT CLOUD COVER ABOVE
       12000 FEET.
       "FAIR" INDICATES FEW OR NO CLOUDS BELOW 12,000 FEET WITH NO
       SIGNIFICANT WEATHER AND/OR OBSTRUCTIONS TO VISIBILITY.

  * THESE STATIONS DO NOT REPORT WEATHER SUCH AS RAIN...SNOW OR FOG.

NEZ001>004-019>022-054>056-171200-
NEBRASKA PANHANDLE

CITY           SKY/WX    TMP DP  RH WIND       PRES   REMARKS
SCOTTSBLUFF    CLOUDY    33  29  85 SE9       30.13S WCI  25
ALLIANCE       CLOUDY    30  27  88 E3        30.12S
CHADRON        CLOUDY    32  29  88 E6        30.15S WCI  26
KIMBALL        FOG       31  29  94 SE14      30.09S VSB 1/4 WCI  21
SIDNEY         CLOUDY    32  29  88 S14       30.15R FOG     WCI  22
$$

NEZ057>060-069>072-079>082-171200-
SOUTHWEST NEBRASKA

CITY           SKY/WX    TMP DP  RH WIND       PRES   REMARKS
NORTH PLATTE   CLOUDY    30  23  75 NE7       30.22S WCI  23
IMPERIAL       CLOUDY    31  27  85 E6        30.20S FOG     WCI  25
LEXINGTON      CLOUDY    31  26  80 N12       30.21F WCI  22
MCCOOK         CLOUDY    31  26  82 NE7       30.23R WCI  24
OGALLALA       CLOUDY    32  27  81 E7        30.19R WCI  26
$$

NEZ005>010-023>029-035>040-094-171200-
NORTH CENTRAL NEBRASKA

CITY           SKY/WX    TMP DP  RH WIND       PRES   REMARKS
VALENTINE      CLOUDY    22  19  89 CALM      30.24F
AINSWORTH      MOCLDY    25  22  86 CALM      30.24S
BROKEN BOW     CLOUDY    28  23  81 N9        30.22F WCI  19
O`NEILL        CLOUDY    29  22  74 NW7       30.26R WCI  22
ORD            CLOUDY    30  23  75 N8        30.24S WCI  22
THEDFORD       CLOUDY    29  23  76 N6        30.23R WCI  23
$$

NEZ041-046>049-061>064-073>077-083>087-171200-
SOUTH CENTRAL NEBRASKA

CITY           SKY/WX    TMP DP  RH WIND       PRES   REMARKS
GRAND ISLAND   CLOUDY    32  24  72 N14       30.24S WCI  22
AURORA         CLOUDY    32  26  78 N13       30.24R WCI  22
HASTINGS       CLOUDY    32  24  72 N13       30.22R WCI  22
HEBRON         CLOUDY    33  26  74 N10G16    30.26R WCI  25
HOLDREGE       CLOUDY    31  25  78 N10       30.22R WCI  22
KEARNEY *      CLOUDY    30  25  80 N15       30.22F WCI  19
YORK           CLOUDY    32  25  74 N10G17    30.25R WCI  24
$$

NEZ011>018-030>034-042>045-171200-
NORTHEAST NEBRASKA

CITY           SKY/WX    TMP DP  RH WIND       PRES   REMARKS
NORFOLK        CLOUDY    31  22  69 NW12      30.24R WCI  22
ALBION         CLOUDY    31  22  70 N12       30.23F WCI  22
BLAIR          CLOUDY    31  25  77 NW12      30.23R WCI  22
COLUMBUS *     CLOUDY    30  19  64 N15       30.24S WCI  19
FREMONT        CLOUDY    32  26  77 NW13      30.25R WCI  22
TEKAMAH        CLOUDY    32  24  72 N12       30.25R WCI  23
$$

NEZ050>053-065>068-078-088>093-171200-
SOUTHEAST NEBRASKA

CITY           SKY/WX    TMP DP  RH WIND       PRES   REMARKS
LINCOLN        CLOUDY    34  24  67 N14       30.27R WCI  25
OMAHA EPPLEY   CLOUDY    33  25  72 N15       30.24R WCI  23
BEATRICE       CLOUDY    33  26  75 N13       30.24S WCI  24
FALLS CITY     CLOUDY    35  28  75 NW10      30.22R WCI  27
NEBRASKA CITY  CLOUDY    33  27  77 NW12      30.23R WCI  25
PLATTSMOUTH    CLOUDY    32  25  74 NW14G20   30.23R WCI  22
$$

NEZ044-045-051>053-067-171200-
OMAHA AREA

CITY           SKY/WX    TMP DP  RH WIND       PRES   REMARKS
OMAHA EPPLEY   CLOUDY    33  25  72 N15       30.24R WCI  23
BLAIR          CLOUDY    31  25  77 NW12      30.23R WCI  22
FREMONT        CLOUDY    32  26  77 NW13      30.25R WCI  22
MILLARD        CLOUDY    32  24  73 NW9G16    30.25R WCI  24
OFFUTT AFB     CLOUDY    33  27  77 NW8       30.24R WCI  26
PLATTSMOUTH    CLOUDY    32  25  74 NW14G20   30.23R WCI  22
WAHOO          CLOUDY    32  24  73 N12       30.25R WCI  23
$$



USA.gov is the U.S. government's official web portal to all federal, state and local government web resources and services.